Home   Weather   Kugluktuk   Past weeks

Flag for Canada Past Weather in Kugluktuk, Nunavut, Canada — Yesterday and Last 2 Weeks

Now
0 °F

Light snow. Overcast.


Feels Like: -10 °F
Forecast: -7 / 6 °F
Wind: 5 mph from West

Location: Coppermine

Current Time: Dec 3, 2016 at 6:47:39 am

Latest Report: Dec 3, 2016 at 6:00 am


Visibility: 6 mi

Pressure: 29.63 "Hg

Humidity: 78%

Dew Point: -6 °F

Location of KugluktukLocation

Past Weather in Kugluktuk — Graph

°F

Kugluktuk Temperature Yesterday

Maximum temperature yesterday: -2 °F (at 8:00 pm)
Minimum temperature yesterday: -15 °F (at 1:00 am)
Average temperature yesterday: -9 °F

High & Low Weather Summary for the Past Weeks

 TemperatureHumidityPressure
High28 °F (Dec 1, 12:00 am)93% (Nov 25, 12:52 pm)30.37 "Hg (Nov 25, 12:52 pm)
Low-15 °F (Dec 2, 1:00 am)64% (Dec 1, 9:00 pm)29.52 "Hg (Nov 30, 7:00 pm)
Average4 °F81%29.92 "Hg
* Reported Nov 18 5:00 am — Dec 3 5:00 am, Kugluktuk, Weather by CustomWeather, © 2016

Note: Actual official high and low records may vary slightly from our data, if they occured in-between our weather recording intervals... More about our weather records

Advertising

Kugluktuk Weather History for the Previous 24 Hours

Scroll right to see more
 ConditionsComfort  
Time TempWeatherWind HumidityBarometerVisibility
5:00 am
Sat, Dec 3
0 °FLight snow. Overcast.3 mph78%29.64 "Hg10 mi
4:48 am-2 °FLight snow. Overcast.3 mph77%29.64 "Hg10 mi
4:00 am-2 °FOvercast.2 mph71%29.63 "Hg15 mi
3:00 am-4 °FOvercast.6 mph77%29.63 "Hg15 mi
2:00 am-6 °FPassing clouds.10 mph77%29.64 "Hg15 mi
1:00 am-6 °FOvercast.12 mph77%29.65 "Hg15 mi
12:00 am-8 °FSnow flurries. Passing clouds.12 mph77%29.65 "Hg15 mi
11:00 pm
Fri, Dec 2
-9 °FSnow flurries. Passing clouds.14 mph77%29.66 "Hg15 mi
10:00 pm-9 °FSnow flurries. Passing clouds.15 mph77%29.65 "Hg12 mi
9:00 pm-8 °FPassing clouds.8 mph77%29.65 "Hg15 mi
8:00 pm-2 °FPassing clouds.7 mph77%29.64 "Hg15 mi
7:00 pm-4 °FPassing clouds.2 mph84%29.66 "Hg15 mi
6:00 pm-4 °FPassing clouds.No wind77%29.68 "Hg15 mi
5:00 pm-6 °FPassing clouds.2 mph77%29.69 "Hg15 mi
4:00 pm-8 °FPassing clouds.No wind84%29.70 "Hg15 mi
3:00 pm-8 °FPassing clouds.5 mph84%29.72 "Hg15 mi
2:00 pm-8 °FScattered clouds.3 mph77%29.74 "Hg15 mi
1:00 pm-9 °FPassing clouds.No wind77%29.74 "Hg15 mi
12:00 pm-8 °FPassing clouds.No wind77%29.77 "Hg15 mi
11:00 am-9 °FPassing clouds.2 mph77%29.79 "Hg15 mi
10:00 am-8 °FPassing clouds.5 mph77%29.81 "Hg15 mi
9:00 am-9 °FPassing clouds.5 mph70%29.83 "Hg15 mi
8:00 am-15 °FSnow flurries. Clear.3 mph76%29.86 "Hg15 mi
7:54 am-15 °FSnow flurries. Clear.5 mph76%29.86 "Hg15 mi
7:00 am-8 °FClear.2 mph70%29.89 "Hg15 mi
6:00 am-9 °FClear.No wind70%29.91 "Hg15 mi
Weather by CustomWeather, © 2016

See weather overviewHow to use our weather pages